Weather Roundup
Issued by NWS Springfield, MO

Home | Current Version | Previous Version | Text Only | Print | Product List | Glossary On
Versions: 1 2 3 4 5 6 7 8 9 10 11 12 13 14 15 16 17 18 19 20 21 22 23 24 25 26 27 28 29 30 31 32 33 34 35 36 37 38 39 40 41 42 43 44 45 46 47 48 49 50
000
NZUS99 KSGF 310357
HRRSGF

HOURLY WEATHER
NATIONAL WEATHER SERVICE SPRINGFIELD MO
1100 PM CDT SUN AUG 30 2015

......SGF CWA......

CITY           SKY/WX    TMP DP  RH WIND       PRES   REMARKS
SPRINGFIELD    CLEAR     75  70  84 SE7       30.00F
JOPLIN         CLEAR     76  70  82 SE6       29.97F
WEST PLAINS    CLEAR     73  67  81 CALM      30.04F
ROLLA          CLEAR     74  70  87 S7        30.01F

......SURROUNDING SGF CWA......

CITY           SKY/WX    TMP DP  RH WIND       PRES   REMARKS
CHANUTE        PTCLDY    72  70  93 CALM      29.97S
PARSONS        CLEAR     73  72  96 CALM      29.96F FOG
COFFEYVILLE    CLEAR     72  71  97 E3        29.95S FOG
EMPORIA        PTCLDY    69  67  93 S3        29.98S

......KANSAS AND MISSOURI......

CITY           SKY/WX    TMP DP  RH WIND       PRES   REMARKS
KANSAS CTY INT PTCLDY    74  69  85 SE7       29.98S
SEDALIA        MOCLDY    77  71  82 SE5       30.00F
ST JOSEPH      CLOUDY    71  69  93 CALM      29.97S
ST LOUIS       MOCLDY    81  69  67 S7        30.01F
WICHITA        CLEAR     74  68  81 SE9       29.96S
TOPEKA         CLEAR     70  68  93 CALM      29.97S
OLATHE         MOCLDY    75  70  84 CALM      29.98S

......TENNESSEE......

CITY           SKY/WX    TMP DP  RH WIND       PRES   REMARKS
MEMPHIS        NOT AVBL
NASHVILLE      MOCLDY    71  64  78 CALM      30.10S

......ARKANSAS.......

CITY           SKY/WX    TMP DP  RH WIND       PRES   REMARKS
FAYETTEVILLE   CLEAR     72  70  93 CALM      30.01R
FT SMITH       MOCLDY    76  68  76 E3        29.97R
LITTLE ROCK    PTCLDY    78  67  68 SE5       29.99S

......OKLAHOMA.......

CITY           SKY/WX    TMP DP  RH WIND       PRES   REMARKS
TULSA          CLEAR     74  70  87 SE6       29.93R
PONCA CITY     CLEAR     75  70  84 E6        29.94F
MCALESTER      CLOUDY    78  67  68 SE5       29.96R
OKLAHOMA CITY  PTCLDY    75  66  73 E9        29.95R

......IOWA............

CITY           SKY/WX    TMP DP  RH WIND       PRES   REMARKS
DES MOINES     NOT AVBL
QUAD CITIES    CLEAR     65  63  93 CALM      30.02S

......ILLINOIS........

CITY           SKY/WX    TMP DP  RH WIND       PRES   REMARKS
QUINCY         NOT AVBL
CHICAGO        CLEAR     65  63  93 SE3       30.04S FOG




USA.gov is the U.S. government's official web portal to all federal, state and local government web resources and services.